Regional Weather Roundup
Issued by NWS

Home | Current Version | Previous Version | Text Only | Print | Product List | Glossary On
Versions: 1 2 3 4 5 6 7 8 9 10 11 12 13 14 15 16 17 18 19 20 21 22 23 24 25 26 27 28 29 30 31 32 33 34 35 36 37 38 39 40 41 42 43 44 45 46 47 48 49 50
000
ASUS43 KMKX 211300
RWRWI

WISCONSIN REGIONAL WEATHER ROUNDUP
NATIONAL WEATHER SERVICE MILWAUKEE/SULLIVAN WI
800 AM CDT MON APR 21 2014

NOTE: "FAIR" INDICATES FEW OR NO CLOUDS BELOW 12,000 FEET WITH NO
SIGNIFICANT WEATHER AND/OR OBSTRUCTIONS TO VISIBILITY.

WIZ001-002-006>008-014>016-023>028-211400-
NORTHWEST WISCONSIN

CITY           SKY/WX    TMP DP  RH WIND       PRES   REMARKS
SUPERIOR ARPT  MOSUNNY   38  33  83 S3        29.87F
ASHLAND        PTSUNNY   42  38  85 SW6       29.89S
HAYWARD        CLOUDY    42  39  89 CALM      29.90S FOG
SIREN          PTSUNNY   46  44  92 S3        29.90S
RICE LAKE      FOG       51  50  96 CALM      29.91R VSB 1/2
LADYSMITH      CLOUDY    51  50  97 CALM      29.90S FOG
EAU CLAIRE     CLOUDY    53  52  96 CALM      29.88S FOG
MENOMONIE      CLOUDY    53  52  98 CALM      29.89R FOG
NEW RICHMOND   CLOUDY    55  55  98 W6        29.92R FOG
OSCEOLA        CLOUDY    53  52  97 CALM      29.94S
$$

WIZ003>005-009-010-017-018-211400-
NORTH CENTRAL WISCONSIN

CITY           SKY/WX    TMP DP  RH WIND       PRES   REMARKS
WOODRUFF       HAZE      43  38  82 CALM      29.89F VSB<1/4
RHINELANDER    NOT AVBL
EAGLE RIVER    FOG       37  37 100 CALM      29.89F VSB<1/4
LAND O LAKES   FOG       35  35 100 CALM      29.90F VSB<1/4
PHILLIPS       FOG       46  46 100 CALM      29.87F VSB<1/4
TOMAHAWK       FOG       43  42  97 CALM      29.90S VSB 1/2
MEDFORD        FOG       50  50 100 SE5       29.88F VSB 1/4
MERRILL        FOG       46  46 100 CALM      29.88F VSB 1/4
$$

WIZ029-030-035-036-043>047-211400-
CENTRAL WISCONSIN

CITY           SKY/WX    TMP DP  RH WIND       PRES   REMARKS
WAUSAU         CLOUDY    50  50 100 SE3       29.87F FOG
MOSINEE        MOSUNNY   52  52 100 CALM      29.90F FOG
MARSHFIELD     FOG       52  51  97 CALM      29.89F VSB 1/4
STEVENS POINT  DRIZZLE   49  49 100 CALM      29.91R
WAUPACA        FOG       54  52  94 CALM      29.91F VSB 3/4
WAUTOMA        NOT AVBL
WISC RAPIDS    CLOUDY    53  52  96 S3        29.92S FOG
CAMP DOUGLAS   NOT AVBL
$$

WIZ011>013-019>022-031-037>040-048>050-211400-
NORTHEAST WISCONSIN

CITY           SKY/WX    TMP DP  RH WIND       PRES   REMARKS
ANTIGO         FOG       44  44 100 CALM      29.90F VSB<1/4
STURGEON BAY   CLOUDY    45  43  93 CALM      29.92R
GREEN BAY      FOG       49  49 100 S3        29.91F VSB 3/4
MANITOWOC      NOT AVBL
APPLETON       CLOUDY    52  50  93 VRB5      29.89F FOG
CLINTONVILLE   LGT RAIN  50  50 100 CALM      29.90F VSB 1/2
OSHKOSH        CLOUDY    53  49  86 S6        29.90S FOG
$$

WIZ032>034-041-042-053>061-211400-
SOUTHWEST WISCONSIN

CITY           SKY/WX    TMP DP  RH WIND       PRES   REMARKS
LA CROSSE      LGT RAIN  55  54  96 S3        29.92R FOG
SPARTA         LGT RAIN  52  52 100 CALM      29.93S VSB 1
VIROQUA        PTSUNNY   55  55 100 NW5       29.94R
BOSCOBEL       CLOUDY    55  54  96 CALM      29.94R FOG
PRAIRIE DU CHI CLOUDY    52  51  97 CALM      29.92R FOG
PLATTEVILLE    FAIR      58  52  81 CALM      29.92S
$$

WIZ056-057-062-063-064-067-068-211400-
SOUTH CENTRAL WISCONSIN

CITY           SKY/WX    TMP DP  RH WIND       PRES   REMARKS
BARABOO/DELLS  PTSUNNY   55  53  93 CALM      29.93R FOG
LONE ROCK      CLOUDY    56  54  93 CALM      29.93R FOG
WATERTOWN      MOSUNNY   56  50  80 CALM      29.91F
MADISON        PTSUNNY   60  53  77 CALM      29.92S
MIDDLETON      FAIR      58  53  85 N6        29.93S
MONROE         CLOUDY    60  47  61 S8        29.91S
JANESVILLE     PTSUNNY   61  48  63 S5        29.91F
$$

WIZ051-052-058>065-066-070>072-211400-
SOUTHEAST WISCONSIN

CITY           SKY/WX    TMP DP  RH WIND       PRES   REMARKS
MILWAUKEE      PTSUNNY   63  46  54 SW3       29.93R
WAUKESHA       SUNNY     57  52  82 W9        29.93F
MILWAUKEE/TIMM SUNNY     61  48  63 W3        29.93S
RACINE         CLOUDY    63  45  51 SW9       29.93F
BURLINGTON     CLOUDY    59  46  60 SW7       29.92F
KENOSHA        PTSUNNY   63  45  51 SW9       29.92F
FOND DU LAC    CLOUDY    52  48  86 S5        29.90F FOG
SHEBOYGAN      CLOUDY    56  48  74 W3        29.91F
WEST BEND      CLOUDY    57  45  62 CALM      29.92S
JUNEAU         PTSUNNY   55  49  82 CALM      29.92F
$$

LSZ147-162-211400-
LAKE SUPERIOR

STATION/POSITION TIME  TEMP    WIND        PRES    WAVE
                       AIR SEA DIR/SP/G            HT/PER
                 (UTC) (F)     (DEG/KT/KT) (MB)    (FT/S)
DEVILS ISLAND    1200   42     320/  4/  5 1012.5R
PORT WING        1240   37     210/  2/  4 1012.2F
SAXON HARBOR     1200          290/  3/  7 1011.5S
$$

LMZ867-665-643>646-211400-
LAKE MICHIGAN

STATION/POSITION TIME  TEMP    WIND        PRES    WAVE
                       AIR SEA DIR/SP/G            HT/PER
                 (UTC) (F)     (DEG/KT/KT) (MB)    (FT/S)
NORTHPORT PIER   1200   37     320/  3/  4 1013.5S
SISTER BAY       1209   35        CALM       N/A
KEWAUNEE LAKESHO 1200   39     290/  3/  4 1014.1F
SHEBOYGAN LAKESH 1200   48     350/  6/  7 1013.5F
PORT WASHINGTON  1200   56      CALM  /  1 1013.9S
MILWAUKEE LAKESH 1200   56     330/  1/  3   N/A
KENOSHA   LAKESH 1200   56     190/  7/  7   N/A
$$

TC  - TEMPERATURE IN CELSIUS
VSB - VISIBILITY IN STATUTE MILES
WCI - WIND CHILL INDEX
HX  - HEAT INDEX




USA.gov is the U.S. government's official web portal to all federal, state and local government web resources and services.